User: anonymous   Login
Location: Observatorio Las Palmas
(29.0667°N, 110.9333°W)
Time: 01:33:25
(UTC-07:00)
Language:

NOAA 19 - Orbit

View from above orbital plane
View from above orbital plane
View from above satellite
View from above satellite

Ground track
Ground track

The orbit data is extracted from the following two-line orbital elements,

1 33591U 09005A   17266.82222956 +.00000082 +00000-0 +69414-4 0  9991
2 33591 099.1042 235.1031 0014050 359.4846 000.6308 14.12213404444317
Epoch (UTC): 23 September 2017 19:44:00
Eccentricity: 0.0014050
inclination: 99.1042°
perigee height: 841 km
apogee height: 862 km
right ascension of ascending node: 235.1031°
argument of perigee: 359.4846°
revolutions per day: 14.12213404
mean anomaly at epoch: 0.6308°
orbit number at epoch: 44431

The dashed part of the orbit path shows where the satellite is in the earth's shadow,  

DLR